User: anonymous   Login
Location: Armidale
(30.5016°S, 151.6662°E)
Time: 02:02:23
(UTC+10:00)
Language:

Hubble Space Telescope - Orbit

View from above orbital plane
View from above orbital plane
View from above satellite
View from above satellite

Ground track
Ground track

The orbit data is extracted from the following two-line orbital elements,

1 20580U 90037B   20272.56051742  .00000679  00000-0  30316-4 0  9996
2 20580  28.4709 357.6830 0002867 118.5338 261.7930 15.09438824471645
Epoch (UTC): 28 September 2020 13:27:08
Eccentricity: 0.0002867
inclination: 28.4709°
perigee height: 536 km
apogee height: 540 km
right ascension of ascending node: 357.6830°
argument of perigee: 118.5338°
revolutions per day: 15.09438824
mean anomaly at epoch: 261.7930°
orbit number at epoch: 47164

The dashed part of the orbit path shows where the satellite is in the earth's shadow,  

DLR